weather.gov     
National Weather Service

Terminal Aerodrome Forecast
NWS Homepage
This page is being discontinued on March 12, 2014.
The same data is available at this site. Please update your bookmarks.
Thank you, and we apologize for the inconvenience.
Please send an email to SR-SRH.Webmaster@noaa.gov with any concerns.


Current Version
Previous Version:    01  02  03  04  05  06  07  08  09  10  11  12  13  14  15  16  17  18  19  20  21  22  23  24  25  26  27  28  29  30  
   31  
[Printable]
297
FTUS43 KDTX 222300
TAFFNT
TAF
KFNT 222320Z 2300/2324 22011KT P6SM FEW060 SCT100
     FM230200 25009KT P6SM SCT060 BKN100
      TEMPO 2305/2307 TSRA BKN035 OVC060CB
     FM230900 32011KT P6SM BKN020 OVC035
     FM231500 35013KT P6SM SCT020 BKN040
     FM232000 01012KT P6SM SCT040=


U.S. Dept. of Commerce
NOAA National Weather Service
1325 East West Highway
Silver Spring, MD 20910
E-mail: w-nws.webmaster@noaa.gov
Page last modified: May 16, 2007
NATIONAL WEATHER SERVICE: for Safety, for Work, for Fun - FOR LIFE